This is the latest recevied weather packets stored in our database for station/object KM4NDN. If no packets are shown the sender has not sent any weather packets the latest 10 day(s).
| Time | Temp. | Humidity | Pressure | Rain* | Wind** | Luminosity | Snow |
|---|---|---|---|---|---|---|---|
| 1777632403 | 5° C | 92% | 1010.7 hPa | 0 mm | - | 2 W/m² | - |
| 1777632101 | 5° C | 92% | 1010.7 hPa | 1.27 mm | - | 1 W/m² | - |
| 1777631798 | 5° C | 92% | 1011 hPa | 1.78 mm | - | 1 W/m² | - |
| 1777631496 | 5° C | 92% | 1011.2 hPa | 3.05 mm | - | 0 W/m² | - |
| 1777631192 | 5° C | 92% | 1011.3 hPa | 3.05 mm | - | 0 W/m² | - |
| 1777630890 | 5° C | 92% | 1011.2 hPa | 3.05 mm | - | 0 W/m² | - |
| 1777630585 | 5° C | 92% | 1011.3 hPa | 1.27 mm | - | 0 W/m² | - |
| 1777630282 | 5° C | 92% | 1011.2 hPa | 1.78 mm | - | 0 W/m² | - |
| 1777629980 | 5.56° C | 92% | 1011 hPa | 1.78 mm | - | 0 W/m² | - |
| 1777629678 | 5.56° C | 92% | 1011 hPa | 0 mm | - | 0 W/m² | - |
| 1777629374 | 5.56° C | 92% | 1011.3 hPa | 1.27 mm | - | 0 W/m² | - |
| 1777629069 | 5.56° C | 92% | 1011.2 hPa | 1.27 mm | - | 0 W/m² | - |
| 1777628767 | 5.56° C | 92% | 1011.4 hPa | 0 mm | - | 0 W/m² | - |
| 1777628463 | 5.56° C | 92% | 1011.5 hPa | 1.78 mm | - | 0 W/m² | - |
| 1777628159 | 5.56° C | 92% | 1011.4 hPa | 1.78 mm | - | 0 W/m² | - |
| 1777627855 | 5.56° C | 91% | 1011.3 hPa | 1.27 mm | - | 0 W/m² | - |
| 1777627553 | 5.56° C | 91% | 1011.5 hPa | 3.05 mm | - | 0 W/m² | - |
| 1777627249 | 5.56° C | 91% | 1011.5 hPa | 1.78 mm | - | 0 W/m² | - |
| 1777626946 | 5.56° C | 90% | 1011.7 hPa | 1.78 mm | - | 0 W/m² | - |
| 1777626642 | 5.56° C | 90% | 1011.7 hPa | 3.05 mm | - | 0 W/m² | - |
| 1777626338 | 5.56° C | 89% | 1011.8 hPa | 3.05 mm | - | 0 W/m² | - |
| 1777626037 | 6.11° C | 89% | 1011.8 hPa | 3.05 mm | - | 0 W/m² | - |
| 1777625732 | 6.11° C | 88% | 1011.9 hPa | 4.32 mm | - | 0 W/m² | - |
| 1777625427 | 6.11° C | 87% | 1012.1 hPa | 3.05 mm | - | 0 W/m² | - |
| 1777625124 | 6.11° C | 85% | 1012 hPa | 1.78 mm | - | 0 W/m² | - |
* Rain latest hour (hover to see other rain measurements)
** Current wind speed in m/s (hover to see current wind gust speed)